Wind_Speed
47 47 47 47 46 44 41 40 40 39 38 38 38 37 37 36 35 33 31 30 30 30 30 30 28 25 23 21 20 20 20 20 20 20 19 17 16 16 18 19 20 19 18 17 16 16 16 15 14 13 13 12 11 11 11 11 10 10 10 11 11 12 13 14 17 18 16 14 14 13 12 13 14 14 15 16 17 17 16 16 18 20 21 20 20
48 47 47 48 48 45 43 41 40 40 38 38 38 38 38 37 36 34 33 33 32 32 32 31 29 27 25 24 23 23 22 21 21 22 21 19 18 18 19 19 19 20 20 20 18 17 17 16 14 13 13 12 12 12 11 10 10 11 11 12 12 12 13 14 16 18 18 16 15 16 16 16 16 15 15 16 16 17 17 17 18 19 21 21 21
48 48 47 48 48 46 44 43 42 41 40 39 39 38 38 38 37 36 35 34 34 34 34 33 31 29 28 27 26 25 24 23 22 23 23 21 19 18 19 20 19 20 21 21 20 19 18 16 15 15 15 14 13 12 11 11 11 11 12 12 13 13 13 15 16 18 19 19 18 18 18 18 17 16 15 16 16 16 17 17 18 18 19 20 21
48 48 48 48 48 47 46 45 44 43 42 41 40 39 38 38 38 38 37 36 35 35 35 35 33 32 31 31 29 28 26 25 25 25 23 21 19 18 19 20 20 20 21 21 21 21 19 17 16 16 16 16 14 13 12 12 12 12 13 13 14 15 15 16 17 18 19 20 20 19 18 18 18 17 16 16 16 16 16 16 16 17 18 19 21
48 48 49 48 49 49 48 47 46 45 44 43 41 40 39 38 38 38 38 37 37 37 37 37 36 35 34 33 32 30 28 27 27 25 23 20 18 18 20 22 22 21 20 20 21 21 19 18 17 17 16 16 15 14 13 12 12 13 14 14 15 15 15 15 16 17 18 20 20 19 18 18 18 18 18 17 18 18 17 17 17 18 18 19 20
48 49 49 49 49 50 50 49 48 47 46 44 43 42 40 40 40 40 40 39 39 38 39 39 38 37 36 35 34 32 30 29 28 24 22 20 16 18 21 23 24 24 22 21 22 21 20 19 18 17 16 16 14 13 13 13 14 14 15 15 16 16 17 16 17 17 19 20 20 20 19 19 19 19 19 19 19 19 19 19 20 21 20 19 20
49 49 49 50 50 51 51 51 49 48 47 45 44 43 43 42 42 41 41 41 41 41 40 40 40 38 37 36 35 34 32 31 29 24 23 20 16 19 23 24 25 27 25 24 23 22 21 20 19 18 16 15 14 13 14 15 14 14 14 14 15 17 18 19 19 19 20 21 21 22 21 21 21 22 21 21 21 21 21 22 22 22 21 21 21
49 49 50 50 51 52 52 51 50 49 47 46 45 44 44 44 44 43 43 42 42 42 42 41 40 39 38 37 37 35 33 33 32 27 24 23 20 20 23 24 26 28 29 27 25 24 22 20 19 18 16 16 15 15 15 14 14 14 14 14 15 17 18 19 20 20 21 23 23 24 24 24 24 24 24 23 24 24 23 22 23 23 24 24 24
49 49 50 51 52 52 51 51 51 49 48 47 46 46 45 45 45 44 44 43 43 43 42 42 41 40 40 39 38 38 36 36 36 32 27 26 24 22 23 26 28 28 30 30 27 24 23 21 19 18 17 16 15 14 14 14 15 16 17 17 18 19 20 20 21 21 22 24 25 25 25 26 27 27 27 27 26 26 25 24 25 25 25 26 26
49 49 51 52 51 51 50 51 51 50 49 48 47 47 46 46 46 45 45 44 43 43 43 43 42 42 42 41 40 39 39 38 38 36 31 29 27 24 24 28 30 29 30 29 27 25 23 21 19 17 15 14 14 14 14 15 17 18 20 21 21 21 21 22 23 24 24 26 27 27 28 30 30 29 29 29 28 28 28 28 28 27 26 28 29
50 51 52 52 51 50 50 51 51 51 50 49 48 47 47 46 45 45 44 43 42 42 43 43 43 43 42 41 40 40 40 40 40 39 34 30 28 25 24 28 30 29 30 29 27 25 23 20 17 15 14 15 16 17 18 18 19 20 21 22 22 22 22 23 24 24 25 27 28 29 30 32 32 31 31 31 30 29 28 27 28 29 29 30 31
51 52 52 51 50 50 50 50 51 51 51 50 49 47 46 45 44 44 43 43 41 41 42 42 43 42 42 41 40 39 40 40 41 40 36 32 28 25 25 28 30 29 30 30 28 25 22 19 18 17 16 16 17 18 19 19 19 19 20 21 21 22 23 24 24 24 25 27 28 29 30 32 31 31 31 31 31 30 29 28 28 29 29 30 31
52 52 52 52 51 51 50 50 49 50 50 50 48 47 46 45 44 44 43 42 41 41 41 41 41 41 41 41 40 38 37 39 41 41 37 34 30 26 27 29 29 29 29 29 27 25 23 21 20 18 17 16 18 19 20 20 17 16 18 21 23 24 26 26 25 25 25 27 29 30 30 31 31 31 32 32 33 32 32 32 30 29 29 30 31
53 53 53 53 52 51 50 49 48 48 48 48 48 47 46 45 44 43 42 41 41 41 41 41 40 40 40 40 39 36 35 38 41 40 39 36 30 26 27 29 29 29 29 29 28 26 24 23 21 20 18 17 19 20 21 21 18 15 16 20 23 26 27 26 25 25 25 27 29 31 30 30 31 32 31 30 30 29 29 30 29 28 29 29 29
53 53 53 53 53 52 51 49 47 46 46 46 46 46 45 44 43 43 42 42 41 40 40 40 40 40 40 40 38 35 34 36 39 40 39 35 27 23 26 28 30 32 31 30 29 27 24 22 22 22 19 17 18 19 18 17 14 11 13 18 22 24 25 25 26 27 27 28 30 30 29 28 28 27 26 25 25 25 25 26 26 26 28 28 28
53 53 53 53 53 52 51 49 47 45 45 44 45 45 44 43 42 42 41 40 39 38 37 38 39 39 40 39 37 34 33 35 36 36 35 32 28 27 28 28 32 36 34 30 29 27 25 24 23 22 20 18 19 19 16 12 9 10 15 19 22 24 25 26 26 27 28 29 29 28 27 25 24 23 22 21 22 22 23 24 24 25 27 28 28
54 53 52 52 52 52 51 49 47 45 44 44 44 43 42 41 40 40 40 40 39 38 37 37 37 38 38 36 34 33 33 33 32 31 33 34 34 33 30 29 34 37 34 31 29 26 25 23 21 21 21 20 20 18 14 13 14 17 19 20 23 27 27 27 27 27 27 27 26 24 23 22 22 21 21 21 20 20 23 24 23 23 25 27 29
53 53 51 50 51 51 50 49 47 45 44 43 42 41 39 39 39 39 39 40 40 40 39 37 36 36 36 34 33 33 32 31 30 30 33 36 36 31 27 31 37 36 32 31 29 27 26 24 21 22 22 20 18 16 14 16 19 20 20 21 25 29 29 27 27 26 26 24 22 22 22 22 22 22 21 20 18 18 22 24 23 23 25 26 28
52 51 50 50 50 50 49 48 46 45 43 41 39 36 35 36 36 36 37 38 39 40 39 37 36 35 33 33 32 32 31 31 31 31 31 33 32 28 25 31 38 37 35 33 30 28 27 25 23 24 23 20 18 17 18 20 22 22 22 24 27 29 28 27 26 25 24 23 22 22 22 21 21 21 20 19 17 17 19 22 23 24 25 25 25
50 48 47 48 49 48 47 46 45 43 41 37 34 32 33 34 34 34 34 35 37 37 37 36 35 33 32 32 32 31 30 30 31 30 28 27 27 25 25 31 35 37 36 34 31 28 25 23 23 24 22 20 19 19 20 22 24 24 24 25 27 29 28 26 25 24 23 22 23 23 22 21 20 19 19 17 16 16 17 19 22 23 23 21 20
46 44 45 47 48 47 46 45 43 40 36 32 31 31 31 32 32 32 31 33 34 35 34 33 32 31 30 31 30 29 30 30 29 27 25 25 24 24 27 31 32 33 32 30 28 25 23 23 23 23 21 19 18 19 21 22 24 25 25 25 27 28 28 27 25 23 22 22 23 22 21 20 18 17 17 17 18 19 19 20 20 19 18 18 19
44 43 44 45 46 45 43 41 37 34 32 31 31 31 30 29 29 28 29 31 32 32 32 31 29 28 28 28 27 28 29 28 25 23 23 24 23 24 28 29 29 28 27 26 23 22 22 22 23 23 21 20 20 21 22 23 23 24 25 26 28 28 28 27 25 23 22 23 22 21 19 18 17 16 16 17 18 18 17 16 15 14 15 17 20
43 43 44 43 42 40 37 34 32 32 33 32 31 30 28 27 26 27 29 31 30 30 30 28 27 26 26 26 27 28 27 25 21 21 22 23 24 26 26 26 26 25 25 24 22 20 19 20 22 22 22 22 22 22 23 23 24 25 26 27 28 29 28 26 24 24 23 21 20 19 18 17 16 15 13 12 12 11 11 12 14 16 19 21 24
43 42 42 40 37 33 31 30 31 33 33 31 30 29 27 26 27 28 29 29 28 28 28 27 25 24 24 24 24 25 24 23 20 19 20 22 25 27 24 22 23 24 24 23 20 18 20 21 21 22 22 22 22 22 23 23 24 25 26 27 28 28 27 26 25 23 21 19 18 17 16 15 14 12 11 10 11 12 14 17 19 21 24 25 25
43 42 39 35 32 31 30 30 31 32 31 31 30 29 27 27 28 28 27 26 25 25 26 25 23 22 22 22 22 22 22 21 19 17 18 21 25 25 22 21 22 23 23 21 19 20 22 22 22 21 22 22 22 22 22 22 22 24 26 28 28 27 26 24 22 19 17 16 15 14 13 12 12 12 12 12 14 16 18 20 22 24 24 23 22
42 39 36 33 32 32 32 32 32 31 30 29 29 28 27 27 27 26 24 23 22 22 23 23 22 21 21 22 21 21 21 21 18 17 18 21 24 24 22 22 23 23 22 21 20 21 22 22 21 21 20 21 21 21 21 21 21 22 24 24 23 22 19 16 14 12 11 10 10 10 11 11 12 12 12 14 15 17 19 21 23 23 21 20 22
40 37 35 35 34 34 34 34 33 30 29 28 28 27 26 24 24 22 21 21 21 21 22 22 21 21 22 22 21 21 22 22 21 19 19 21 22 22 22 24 24 23 22 21 21 21 21 21 20 20 19 20 21 21 20 18 18 17 17 17 16 13 9 7 6 6 6 7 8 8 9 10 11 12 14 15 16 17 19 21 21 20 19 20 23
39 37 36 36 35 35 35 35 33 32 30 29 28 26 24 22 21 20 20 20 21 21 20 20 20 20 21 22 22 23 24 24 22 21 21 21 21 22 24 26 25 24 22 21 21 20 20 20 20 19 19 20 19 18 17 15 14 12 12 11 11 7 4 4 5 6 7 8 8 9 11 12 13 14 15 16 18 20 20 19 18 18 19 20 20
38 37 36 36 35 35 34 33 32 31 30 28 26 24 22 21 19 18 19 19 19 18 18 18 18 18 19 20 22 24 25 25 22 19 19 20 19 21 24 25 24 23 22 20 19 19 19 20 19 18 17 16 15 14 14 14 13 11 10 9 8 6 5 5 6 7 7 8 8 10 12 13 13 14 16 18 19 20 18 16 17 18 19 18 18
37 36 35 35 34 33 32 30 28 26 25 24 23 21 20 19 17 16 16 16 16 16 15 15 15 16 17 18 20 20 20 20 19 17 18 19 19 20 22 22 22 21 20 18 18 18 19 18 16 14 13 12 12 13 14 15 13 11 10 10 8 6 6 6 7 8 8 9 11 12 13 12 13 15 16 18 18 16 14 15 17 18 16 17 19
36 34 33 32 31 29 28 26 23 21 19 18 17 17 18 19 18 16 16 15 15 14 13 13 13 13 13 14 15 15 15 16 17 16 16 17 18 18 19 19 19 18 17 15 15 15 16 15 14 13 13 13 13 14 16 17 15 12 10 10 8 6 6 6 7 8 9 12 13 14 13 14 16 17 17 17 16 16 15 16 16 15 16 17 19
34 32 30 29 27 24 23 21 19 18 17 15 13 14 16 18 19 18 16 14 12 12 12 12 11 9 8 9 10 13 15 16 16 16 16 16 17 18 18 17 16 16 15 13 12 12 13 13 14 14 14 13 13 14 14 13 13 11 9 8 7 5 5 6 7 9 12 13 14 14 15 16 17 17 17 17 17 16 15 15 15 15 17 18 19
29 28 26 24 21 19 18 17 17 16 16 15 14 13 14 16 16 16 15 13 11 11 11 12 12 11 12 11 10 11 13 14 15 16 17 18 18 18 17 16 16 16 15 13 11 11 13 14 13 13 12 11 13 14 12 9 8 8 7 6 7 6 6 7 9 11 13 14 15 16 18 19 19 18 18 16 14 13 13 14 15 16 17 18 19
21 20 19 19 17 16 16 15 15 15 14 14 14 14 13 12 12 12 12 13 13 12 13 14 15 15 15 14 13 13 13 14 15 16 17 18 18 18 16 15 15 15 14 13 13 14 14 13 10 8 9 11 13 14 12 9 8 8 8 9 10 10 9 10 11 12 14 15 17 19 21 22 21 19 16 12 10 11 13 14 15 16 17 19 20
16 15 15 15 14 14 14 14 14 14 14 13 13 12 11 11 10 10 10 12 15 15 16 17 17 16 15 14 15 16 16 16 16 16 17 17 17 16 16 15 15 15 14 14 15 14 12 11 11 10 11 12 11 11 10 9 9 10 10 10 11 11 12 12 13 14 15 16 18 19 21 20 16 12 9 9 11 12 13 14 15 16 17 18 19
15 15 15 14 12 11 12 12 12 11 12 12 12 12 11 10 10 11 11 13 15 16 18 20 19 18 16 15 16 17 17 16 16 15 16 16 15 15 16 16 16 16 16 15 14 10 8 11 14 14 12 11 10 9 9 10 10 10 10 11 12 13 14 14 14 14 15 16 17 17 15 11 7 6 7 9 11 12 13 14 15 16 16 17 18
16 16 16 13 11 10 10 11 11 11 13 14 14 12 10 9 10 12 14 15 15 16 18 21 21 19 16 16 16 17 17 16 15 15 15 16 16 17 17 17 17 17 16 13 10 7 8 11 14 14 12 11 11 10 10 11 12 11 11 11 12 13 13 13 13 13 14 15 15 13 10 6 5 7 9 10 11 13 13 13 14 15 16 17 19
14 14 13 12 10 8 9 12 15 16 18 17 15 13 12 12 13 15 15 15 15 15 16 20 21 20 16 15 16 17 17 16 16 16 17 17 18 18 18 17 16 16 15 12 8 6 9 12 13 13 13 12 11 11 11 12 12 12 12 12 12 13 14 14 14 15 15 15 13 11 9 7 7 9 10 11 13 15 13 12 13 15 16 17 19
14 13 11 10 9 8 9 13 16 18 19 18 16 15 15 16 16 16 16 14 13 14 15 18 21 20 17 15 15 16 17 17 17 16 16 17 17 17 16 15 14 12 11 10 10 11 13 13 13 12 12 11 11 11 11 11 12 13 14 13 13 14 15 14 15 16 14 11 10 10 10 9 10 10 11 13 14 13 11 12 14 15 15 17 19
16 14 11 10 9 8 9 12 15 17 17 16 16 17 17 17 17 16 14 12 12 13 15 18 19 18 16 15 14 15 15 15 15 15 15 16 16 15 14 15 14 11 8 9 12 13 13 11 10 10 10 11 13 13 13 13 13 14 14 15 15 15 14 15 16 15 11 8 9 11 11 11 11 11 12 14 12 10 11 14 14 14 14 16 19
14 12 11 11 10 8 9 12 15 16 16 16 17 18 18 18 18 16 14 12 10 10 12 15 16 15 13 13 12 12 12 12 13 13 13 13 12 11 13 16 15 11 8 9 11 11 10 9 8 8 9 10 11 13 12 10 9 9 10 11 12 12 14 15 14 10 7 6 8 10 11 11 11 13 14 13 10 9 12 13 13 12 13 16 19
11 11 11 10 10 9 11 14 16 17 18 18 19 20 21 20 19 17 15 13 10 10 11 13 13 11 11 11 11 10 10 10 11 12 11 9 9 10 15 17 15 10 9 11 11 11 10 9 8 7 6 6 7 8 8 8 8 8 9 11 12 14 15 15 11 9 9 10 10 11 12 12 13 14 13 12 10 11 12 12 11 11 13 16 19
8 9 11 11 11 12 14 16 17 18 19 20 20 21 21 20 19 17 15 13 11 11 12 12 11 11 12 12 10 9 9 10 11 11 9 7 8 10 14 15 13 11 11 11 11 11 10 9 8 7 6 6 7 8 8 9 10 10 11 13 15 17 17 14 11 12 13 13 13 13 13 13 14 15 14 12 12 12 12 11 11 10 13 17 17
6 9 11 11 11 14 16 16 17 18 17 17 17 17 16 17 17 16 15 14 13 13 13 11 10 12 13 13 12 11 10 9 11 10 8 7 8 10 12 13 13 12 12 12 11 10 9 9 9 9 9 8 9 9 9 9 10 12 14 15 17 18 18 17 15 15 16 16 16 16 16 16 16 15 14 12 12 12 12 11 10 10 14 16 14
9 11 12 13 14 16 16 17 18 17 16 16 17 16 15 15 16 16 16 15 15 14 13 11 11 12 12 11 11 10 9 10 13 12 9 9 11 13 14 14 13 12 12 12 12 12 11 11 10 10 10 10 10 10 10 10 11 13 15 17 18 19 19 18 17 16 17 17 16 16 15 15 13 12 12 12 12 13 12 9 9 11 14 14 11
12 14 16 17 17 17 17 18 18 16 15 17 20 20 17 16 16 16 15 14 13 13 12 11 11 11 11 10 10 8 7 9 14 14 11 11 13 14 13 12 11 12 13 14 14 14 13 12 12 11 11 12 12 11 11 11 11 12 14 15 15 15 16 16 16 15 15 15 15 14 13 11 10 10 11 12 14 13 10 7 9 12 12 10 10
11 14 16 15 14 17 18 18 17 16 17 19 20 20 18 17 16 15 14 13 12 12 11 10 10 10 9 8 8 7 5 7 12 14 13 11 10 10 10 10 12 14 16 16 15 14 12 11 10 11 12 12 11 10 10 10 10 11 12 12 10 9 10 13 16 17 17 17 16 14 13 11 10 11 11 12 13 11 7 7 11 11 8 8 10
9 12 12 11 12 15 17 16 15 16 17 18 18 17 16 15 15 16 15 13 11 10 10 9 10 10 8 6 6 7 6 6 9 12 13 11 9 8 10 13 14 15 16 15 14 12 11 11 12 13 12 11 10 10 10 10 10 10 10 10 9 9 8 8 10 12 14 15 13 12 11 10 10 11 11 12 12 9 6 9 11 8 6 7 10
4 5 8 10 12 13 14 14 15 16 15 15 15 16 15 15 16 17 17 15 11 9 9 9 10 11 10 8 8 8 8 8 9 10 10 10 9 8 10 13 13 13 12 11 10 10 11 13 14 14 12 11 11 12 12 12 11 10 8 8 8 9 9 9 8 8 9 10 10 10 10 10 10 11 11 10 10 8 7 9 8 4 5 8 10
7 6 8 8 9 9 11 13 15 14 13 14 16 16 15 15 15 15 14 14 12 12 11 10 10 12 11 8 8 9 8 8 9 10 9 10 9 7 6 7 9 9 8 9 11 13 15 15 15 13 12 11 11 10 11 12 12 9 7 6 7 8 9 10 9 9 9 9 9 10 10 10 10 11 10 10 10 10 8 6 4 2 5 8 10
8 9 9 10 11 11 11 13 13 13 14 17 17 15 13 11 11 11 12 12 11 12 13 11 10 11 11 9 10 11 9 8 9 10 9 8 9 8 7 8 10 12 14 15 16 17 17 16 15 13 12 12 12 11 10 10 10 8 6 7 8 9 10 10 10 9 9 9 9 10 9 10 10 10 10 10 10 8 5 2 1 1 5 8 8
Wind_Direction
216 216 217 217 217 218 218 217 218 218 219 219 220 220 221 222 222 223 224 224 225 225 226 230 233 235 239 239 236 234 231 224 216 215 216 216 215 214 212 212 215 215 215 217 217 219 223 223 224 229 234 239 241 243 247 250 255 261 264 266 263 260 262 262 268 280 289 290 288 287 285 282 279 276 272 273 278 283 287 289 291 296 301 306 311
216 216 216 216 217 218 218 217 217 217 218 218 219 220 220 222 223 224 225 225 226 228 229 231 234 237 240 241 241 239 237 230 220 216 217 217 215 215 215 215 216 215 217 220 219 218 220 220 221 228 235 237 238 241 245 249 255 262 265 267 269 266 266 269 274 282 290 294 292 291 291 287 283 282 279 276 276 279 282 285 287 290 295 300 302
217 217 217 216 217 218 218 218 217 218 218 218 219 219 220 221 223 225 226 226 227 229 231 232 235 238 241 242 241 241 238 232 225 221 219 217 216 218 220 221 221 216 217 222 221 217 219 219 218 227 235 237 238 241 246 251 256 263 266 268 272 273 274 276 277 280 287 291 289 288 288 287 285 285 284 283 281 281 284 285 283 282 288 293 293
217 217 217 217 217 217 218 219 219 219 219 219 219 219 219 221 223 225 227 227 228 229 231 233 235 237 240 241 240 240 238 234 229 224 221 219 220 222 224 227 227 221 216 218 218 217 218 218 218 223 229 233 235 238 242 248 255 262 266 266 267 271 272 272 273 276 281 284 286 287 288 290 292 294 294 293 292 292 292 291 287 282 281 283 285
217 218 218 217 216 217 218 219 219 220 220 220 220 220 219 221 223 225 227 228 229 230 231 233 234 236 239 240 240 239 238 237 231 224 221 220 223 227 227 229 231 227 220 216 216 217 218 219 221 222 226 231 233 233 236 244 253 259 263 264 265 269 270 270 272 274 276 280 285 288 290 292 296 298 299 299 298 298 297 295 294 293 288 283 282
217 218 219 218 217 217 218 219 220 220 221 222 222 221 221 222 223 225 227 228 230 231 232 234 236 237 238 240 240 239 239 238 231 225 221 218 227 238 231 229 232 230 226 221 218 220 221 222 224 225 227 231 232 235 241 248 255 259 263 267 271 273 275 276 277 277 278 281 285 288 291 293 294 297 300 302 301 299 297 294 293 296 296 292 287
217 218 219 219 218 218 218 219 220 220 221 223 223 222 222 223 224 226 227 229 230 232 233 235 237 239 239 240 241 239 238 236 228 223 220 220 235 244 233 228 230 230 230 228 224 224 224 223 225 227 230 236 240 247 252 256 260 265 268 272 274 276 277 278 279 278 278 280 284 287 289 291 292 294 299 301 300 298 296 294 293 296 297 295 292
216 216 218 219 219 219 220 220 220 221 222 223 223 223 223 223 224 226 227 228 231 233 235 236 238 239 240 241 241 239 237 232 225 218 217 220 232 241 238 235 231 228 228 230 230 230 227 225 229 232 236 243 249 254 258 261 267 271 274 277 279 280 281 282 281 279 278 277 279 282 284 286 289 291 294 296 295 295 296 295 294 297 299 297 295
216 215 217 219 219 220 220 220 220 221 222 222 223 224 224 223 224 226 227 228 231 233 236 237 237 238 239 240 240 238 235 231 226 221 218 222 230 241 248 244 234 228 227 228 230 230 228 230 234 236 240 246 254 261 266 271 275 279 282 283 283 284 285 285 283 279 277 275 276 278 279 280 284 287 290 291 292 292 293 293 292 294 296 294 292
216 215 216 219 220 220 220 220 220 221 221 222 224 225 224 223 223 224 227 229 230 232 234 236 237 238 238 238 238 237 235 231 230 228 225 225 231 241 250 243 232 227 226 226 228 230 230 232 235 241 249 257 266 273 276 277 277 280 284 285 286 286 286 285 283 280 277 276 277 278 278 278 283 286 288 291 293 293 292 291 290 291 290 286 286
216 217 218 219 220 220 220 220 220 221 222 223 224 224 224 223 222 223 226 228 229 231 232 235 237 238 238 239 239 239 236 233 232 233 229 225 231 241 246 238 229 225 225 225 228 230 228 229 230 235 246 256 265 271 274 275 275 277 281 284 285 285 285 283 282 280 280 279 280 281 280 281 285 288 288 290 292 291 290 289 286 286 284 282 283
216 218 218 218 219 221 221 220 220 221 221 222 223 223 222 221 220 222 225 227 229 229 231 234 237 238 239 239 238 239 239 235 235 236 231 226 231 239 241 234 228 226 226 226 226 225 224 225 227 229 234 243 252 261 266 268 271 277 280 281 282 282 282 283 282 280 280 280 281 281 281 283 285 287 287 286 284 284 284 282 279 278 278 279 281
215 217 218 217 219 221 221 220 220 220 221 221 221 221 220 219 219 221 223 226 228 229 231 234 235 238 239 239 237 238 238 237 236 236 233 229 229 232 234 232 229 228 228 228 224 221 220 224 228 231 235 239 244 252 256 257 263 276 281 281 281 281 282 283 283 282 282 281 281 281 282 284 284 285 284 281 280 282 282 281 278 276 277 280 283
214 216 216 217 218 220 221 221 220 220 220 220 219 219 219 219 219 220 222 224 227 229 231 232 235 238 239 239 239 238 237 238 236 234 234 231 227 229 235 234 231 231 231 229 225 222 223 227 230 231 234 239 245 248 254 261 270 279 285 284 283 283 284 284 285 285 283 283 282 283 284 284 283 284 286 285 286 287 285 281 278 277 278 281 283
214 215 216 216 216 218 219 219 219 219 219 218 218 218 218 218 217 218 220 223 226 229 231 232 235 237 238 239 240 239 240 240 236 235 236 230 222 228 237 237 236 235 233 230 225 223 225 230 232 232 233 240 247 251 261 273 280 287 295 292 287 284 285 286 287 287 286 284 285 284 283 281 281 284 288 289 290 292 288 283 281 283 284 283 284
213 215 215 214 214 215 216 216 216 216 216 216 216 216 217 217 216 217 219 221 224 228 232 233 234 236 238 239 239 240 243 241 237 236 233 224 221 230 236 236 237 236 233 229 224 223 228 231 234 237 239 242 248 256 266 269 260 262 275 281 282 282 283 285 286 287 285 284 284 283 282 283 284 286 288 290 293 294 289 283 281 282 284 284 285
213 215 215 214 212 212 213 213 213 214 214 214 214 214 215 216 216 216 218 220 222 226 230 233 235 237 237 237 238 240 242 241 239 236 231 228 233 239 238 233 232 231 229 226 224 227 232 232 234 240 243 244 248 255 257 252 254 263 267 272 278 280 281 283 283 283 282 282 283 285 287 289 290 291 292 294 296 293 285 281 283 284 285 286 288
213 214 214 213 211 209 209 211 212 212 212 212 212 212 214 215 216 217 219 222 224 225 228 231 234 236 236 238 240 241 242 244 243 238 234 236 240 243 236 226 223 224 225 225 227 230 230 228 232 239 241 242 246 250 250 252 259 266 268 273 277 278 280 283 285 284 283 283 286 288 289 290 291 291 291 293 294 289 283 284 288 286 283 284 288
212 213 213 211 208 206 206 208 209 209 209 209 210 213 216 217 217 218 221 223 225 225 226 228 229 232 235 237 239 240 242 245 243 239 237 239 241 242 231 217 216 221 224 226 228 228 229 233 237 238 240 241 244 251 258 259 260 263 268 273 277 279 282 285 286 287 287 288 289 289 289 291 292 291 292 294 294 288 282 283 284 281 281 285 290
210 211 209 206 204 202 202 204 206 207 208 209 212 216 218 218 218 218 218 220 223 224 225 225 226 228 231 233 235 239 242 242 238 236 238 241 243 239 223 211 214 219 223 225 225 224 234 246 242 234 236 242 250 260 263 258 258 264 270 273 276 281 284 285 286 287 288 290 291 292 292 294 294 293 295 296 293 284 279 279 281 284 288 289 290
207 206 203 200 198 198 199 202 204 206 208 212 215 217 218 219 218 217 214 215 219 222 223 224 224 225 226 228 231 237 239 236 232 232 238 245 244 231 215 210 213 217 219 222 224 231 249 254 236 226 233 246 259 265 261 257 260 267 271 274 278 282 285 285 286 286 286 288 290 291 292 292 292 291 290 287 284 283 282 283 284 288 292 291 290
203 201 197 194 193 194 197 199 202 205 210 214 215 215 216 216 215 213 212 212 214 217 220 222 222 221 222 224 229 233 232 229 228 232 240 244 236 217 208 209 211 213 215 220 232 250 258 244 225 225 239 255 266 266 261 261 265 269 272 274 278 282 283 283 284 285 287 289 290 290 290 289 287 283 280 279 281 283 285 285 284 285 287 289 291
197 194 191 188 188 190 193 197 202 208 211 212 214 214 211 206 204 204 205 206 209 213 217 218 217 218 219 223 226 226 225 225 229 233 238 236 224 212 209 211 211 214 223 233 246 254 244 228 227 237 249 260 266 264 262 265 268 271 274 276 279 281 282 283 285 287 289 290 288 287 287 286 285 282 280 282 283 282 283 284 282 281 281 283 286
188 186 184 183 184 187 192 199 204 206 207 208 209 209 202 195 193 195 198 201 205 209 213 215 215 216 217 220 220 219 221 225 229 231 233 228 218 214 218 221 219 225 239 248 248 237 228 231 241 250 256 261 261 260 263 268 271 274 275 277 279 282 283 284 286 287 287 285 284 285 285 287 290 289 286 285 286 286 287 286 285 285 286 287 288
180 179 177 178 183 189 194 198 199 199 200 202 201 198 193 189 191 194 196 199 202 204 208 212 213 214 215 217 217 217 219 223 225 225 226 224 222 225 233 234 230 235 244 245 236 230 234 243 251 257 260 259 258 261 265 267 270 273 275 279 282 283 283 283 283 283 282 282 284 285 288 296 302 298 290 287 286 286 286 286 290 295 296 295 294
173 173 176 182 189 192 189 187 188 189 191 191 190 189 188 189 192 195 196 199 202 205 207 208 210 212 214 216 217 218 220 223 222 218 218 222 228 234 237 232 229 233 237 235 235 239 244 249 256 259 258 256 259 263 266 268 272 277 280 283 283 281 280 280 280 281 283 287 291 295 301 310 310 300 289 284 282 284 288 294 302 307 306 303 302
172 176 181 183 184 182 180 179 180 180 179 180 182 186 189 191 193 196 198 201 204 205 207 208 210 211 212 215 218 220 221 220 216 214 215 218 220 223 223 223 224 226 229 233 238 245 250 254 258 257 256 259 264 266 269 273 277 281 284 282 277 274 274 278 282 293 305 313 314 312 314 314 306 298 294 290 289 293 300 306 310 312 309 306 307
173 174 175 174 173 173 175 176 175 173 174 177 181 184 188 191 194 197 200 204 206 207 210 213 215 213 213 215 219 219 218 217 216 217 218 216 214 215 218 221 224 228 234 240 243 246 251 254 254 255 258 262 264 267 272 275 277 284 289 279 268 262 263 277 291 304 314 317 311 303 305 307 303 298 297 298 300 305 309 311 311 311 311 312 314
164 164 164 165 166 169 171 172 172 172 174 177 179 181 185 189 194 198 201 205 208 212 217 221 223 222 220 221 222 220 217 217 218 221 223 223 225 226 226 229 233 238 241 244 245 247 250 251 252 256 258 259 261 267 273 274 274 284 291 284 275 272 267 275 289 296 299 298 292 292 299 302 298 295 296 302 308 313 315 315 313 313 316 319 320
154 155 158 161 164 165 166 167 169 172 174 176 179 181 185 191 196 199 201 203 206 212 219 224 228 230 230 231 234 231 226 221 218 219 223 225 228 232 234 237 241 242 241 242 244 246 248 249 251 255 259 262 267 272 276 276 275 282 292 296 295 287 274 274 284 288 287 285 286 291 295 295 294 298 304 310 314 318 318 314 313 317 323 324 322
150 152 157 162 163 163 164 164 167 169 171 174 179 185 190 195 197 197 200 203 203 206 210 216 226 233 233 234 233 226 218 216 215 215 216 217 219 226 231 232 232 231 231 234 236 240 245 248 249 257 268 275 279 283 283 278 272 273 284 289 284 269 258 265 276 278 276 276 279 284 289 293 297 302 306 310 311 311 310 311 318 326 328 325 323
150 154 161 164 162 162 162 162 163 165 167 171 176 183 193 197 195 193 195 198 200 204 208 211 216 216 208 209 215 209 200 201 206 210 213 214 217 223 225 223 220 218 218 219 223 234 246 251 255 262 268 269 273 279 279 270 262 266 276 280 271 246 229 234 246 256 263 271 279 286 292 296 296 298 302 305 307 308 312 320 329 331 327 324 323
153 156 158 157 157 159 160 162 165 167 169 173 173 178 189 195 195 192 189 187 194 205 207 199 190 182 174 173 184 195 197 197 202 208 213 215 217 220 221 219 215 212 212 218 230 244 252 251 254 260 260 253 256 263 262 255 255 262 265 257 241 223 217 231 246 258 270 280 288 295 298 298 297 299 304 308 312 319 327 331 331 329 326 323 320
153 152 147 142 143 148 153 160 167 170 173 176 177 180 187 192 196 198 194 192 196 197 188 180 174 170 168 166 170 181 192 199 204 206 208 209 212 215 216 216 217 218 220 230 246 256 256 247 239 246 249 242 241 244 242 234 226 218 211 215 223 231 243 256 264 274 284 290 294 298 301 301 300 300 305 316 330 333 331 328 326 325 323 321 321
157 156 150 143 137 139 148 159 166 171 174 175 177 183 188 192 200 202 198 201 202 191 178 174 172 172 174 177 179 182 186 193 201 203 204 206 209 212 215 217 219 222 229 239 249 254 248 230 221 230 239 234 226 224 222 218 214 214 219 227 238 249 259 266 273 281 287 293 298 302 306 307 307 309 320 336 337 328 323 324 323 322 322 325 328
164 162 158 150 142 143 154 163 168 171 172 172 177 182 186 195 204 198 189 196 202 193 180 175 173 175 181 186 188 187 187 192 200 205 208 211 214 216 220 221 222 229 237 241 241 236 220 215 223 232 236 235 234 232 229 228 235 241 245 250 257 263 268 275 282 286 292 299 307 311 312 315 328 347 342 331 322 315 315 317 318 321 329 333 334
162 158 152 147 146 151 159 168 171 169 167 168 169 168 166 175 183 180 180 189 195 192 186 182 181 183 185 186 188 190 191 194 201 207 211 215 218 221 224 226 232 237 235 227 222 215 200 206 222 235 242 249 257 259 255 253 256 258 260 260 260 263 271 280 286 289 296 306 311 314 314 321 344 341 323 312 309 309 310 315 322 329 336 336 333
152 152 149 143 140 141 149 155 155 154 156 156 153 147 146 153 162 172 182 189 190 190 191 190 191 196 197 192 190 192 193 197 204 208 212 216 220 224 228 233 237 235 222 210 205 205 202 208 222 237 246 256 264 267 267 268 267 267 266 262 260 264 272 279 287 293 299 306 312 314 313 315 320 314 305 304 308 309 313 325 332 333 334 334 333
152 152 155 151 144 145 153 156 154 151 151 151 147 147 148 152 162 177 185 181 178 186 193 195 198 204 208 206 201 199 200 205 207 208 212 216 219 223 227 225 218 210 205 205 206 204 207 216 229 240 250 264 274 274 271 267 266 266 265 263 267 274 278 284 296 301 300 301 307 310 307 305 305 301 299 303 308 312 323 331 329 329 332 334 332
155 154 162 169 167 163 164 162 156 152 153 152 150 151 155 161 170 181 184 177 174 181 190 197 203 208 209 209 209 206 205 205 206 208 213 216 219 222 220 206 192 180 180 197 204 207 215 227 238 251 266 281 287 285 280 277 275 274 270 266 267 271 275 285 297 304 304 296 293 295 297 298 296 293 297 303 309 318 325 324 323 328 334 333 332
150 149 159 172 177 177 176 169 161 157 159 160 157 159 169 179 185 187 189 191 186 179 183 194 202 203 202 202 204 206 207 208 210 212 214 214 215 211 197 186 181 181 193 207 213 220 231 242 256 272 285 294 293 287 282 284 291 290 278 268 265 268 276 285 293 301 306 296 282 282 289 292 289 291 300 306 310 314 315 315 320 328 333 334 334
157 156 166 182 191 188 178 170 166 167 170 171 171 173 178 183 188 193 199 201 194 181 182 186 183 177 179 183 184 188 195 198 197 194 190 186 183 181 180 181 183 191 209 222 229 237 247 257 266 273 281 294 297 290 283 285 293 292 281 273 272 277 286 290 286 277 276 278 277 279 284 284 283 290 300 305 305 306 310 315 321 328 334 337 337
167 174 187 196 194 181 174 173 178 183 184 182 183 184 184 185 189 194 199 200 194 188 188 185 173 166 169 170 170 174 179 182 182 180 175 171 169 170 176 184 192 203 218 232 238 240 243 248 249 247 249 258 266 269 273 276 276 274 272 272 273 280 288 292 281 265 262 265 269 272 275 274 278 290 303 308 307 309 314 319 327 338 341 338 338
162 176 190 193 181 174 179 188 193 193 190 186 185 184 183 184 186 187 188 191 192 191 191 190 187 187 186 182 178 179 181 181 183 186 195 203 196 186 188 197 207 217 225 234 239 238 237 241 246 248 250 251 251 254 262 268 272 276 277 277 278 281 284 283 275 264 258 257 259 262 267 275 284 297 308 310 308 311 316 323 336 345 340 336 342
167 171 183 190 188 187 192 196 193 185 176 173 173 172 171 173 175 177 181 185 186 187 192 196 200 205 209 205 195 191 194 193 187 187 198 204 196 195 203 213 222 227 227 227 231 235 237 241 246 246 245 248 254 260 267 274 280 284 286 286 286 284 280 277 273 266 262 264 267 271 278 286 292 300 305 304 304 309 316 326 338 338 334 339 355
176 182 191 194 194 194 196 194 190 181 170 167 170 168 165 165 168 173 181 185 185 186 192 197 200 206 212 213 206 204 204 194 187 189 201 208 205 206 214 220 225 229 226 223 225 230 232 234 241 249 259 267 269 271 276 284 288 289 290 292 290 283 272 266 262 258 259 266 274 282 288 292 293 297 301 303 306 310 315 326 331 331 335 351 6
200 208 211 208 200 194 190 185 181 175 171 172 175 175 173 172 170 172 181 191 195 194 193 194 196 198 201 203 204 201 194 189 192 197 205 208 205 209 217 221 223 227 227 225 227 233 240 253 268 280 289 288 277 270 274 284 292 296 297 299 301 296 277 261 255 255 260 266 274 282 287 290 294 299 302 304 306 307 313 325 328 330 345 7 8
215 216 210 205 203 197 187 178 174 173 172 174 177 178 180 181 178 176 181 187 186 184 189 198 204 203 196 187 183 177 167 174 190 198 201 200 198 210 226 230 229 227 228 229 233 241 257 277 288 293 298 300 299 299 300 299 300 306 307 302 301 308 308 291 273 267 268 270 275 281 286 289 295 300 301 304 304 300 304 320 325 334 5 13 8
180 187 181 190 201 197 184 178 178 178 179 183 182 178 178 182 182 184 190 193 191 193 204 214 212 203 191 174 167 165 161 164 174 184 195 204 212 231 242 236 227 222 224 232 246 263 280 288 289 287 289 296 306 317 320 315 309 315 325 321 308 307 315 316 305 291 284 281 282 284 287 291 297 300 301 301 294 282 289 313 325 344 20 12 5
146 152 158 172 185 187 190 194 190 183 183 189 187 182 182 185 185 187 190 189 190 199 210 213 205 199 193 181 170 167 164 168 176 183 197 213 224 238 247 234 227 232 246 262 275 282 284 285 284 282 283 286 292 306 322 326 321 321 335 346 336 325 323 318 308 299 293 289 288 289 291 293 298 300 299 294 284 279 291 315 329 3 21 12 4
168 174 173 173 173 174 183 192 188 183 188 193 188 179 175 175 176 179 180 179 184 197 205 203 197 192 187 179 175 179 186 196 200 201 206 214 223 233 244 246 252 260 265 269 274 276 276 276 275 275 278 282 284 289 308 328 332 331 343 359 354 339 329 319 307 299 295 290 289 293 295 296 300 302 297 289 283 282 294 323 318 348 9 6 356
Height
1487 1489 1491 1493 1495 1497 1500 1503 1506 1509 1512 1514 1516 1518 1520 1522 1524 1526 1527 1529 1530 1531 1533 1534 1535 1537 1538 1540 1540 1541 1542 1542 1543 1545 1546 1547 1548 1549 1550 1551 1551 1552 1553 1554 1554 1555 1555 1556 1557 1557 1558 1558 1558 1559 1560 1560 1560 1561 1561 1561 1562 1562 1562 1562 1561 1560 1560 1561 1561 1561 1561 1561 1561 1561 1561 1560 1560 1559 1559 1558 1557 1555 1555 1554 1554
1483 1485 1487 1489 1491 1494 1497 1500 1503 1506 1508 1511 1513 1515 1517 1519 1521 1523 1524 1526 1527 1528 1529 1530 1532 1534 1535 1536 1537 1538 1539 1540 1541 1542 1543 1545 1546 1547 1548 1549 1549 1550 1551 1552 1552 1553 1553 1554 1554 1555 1556 1556 1557 1557 1557 1558 1558 1559 1559 1559 1559 1559 1560 1559 1559 1558 1557 1558 1558 1558 1558 1558 1558 1558 1558 1558 1557 1557 1557 1556 1555 1554 1553 1552 1552
1480 1482 1484 1486 1488 1491 1495 1498 1500 1503 1505 1507 1509 1512 1514 1516 1518 1519 1521 1523 1524 1524 1526 1527 1529 1530 1531 1532 1533 1534 1536 1537 1538 1539 1540 1542 1544 1546 1547 1547 1548 1548 1549 1549 1550 1551 1551 1551 1552 1553 1554 1554 1555 1555 1555 1556 1556 1556 1556 1557 1557 1557 1557 1557 1556 1556 1555 1555 1555 1555 1555 1555 1555 1555 1555 1555 1555 1554 1554 1554 1553 1552 1551 1551 1550
1478 1480 1481 1483 1486 1489 1492 1494 1497 1499 1501 1503 1506 1508 1511 1513 1514 1516 1517 1519 1520 1521 1523 1524 1526 1527 1527 1528 1530 1531 1533 1534 1535 1537 1539 1542 1544 1545 1546 1546 1546 1547 1547 1548 1549 1549 1549 1549 1550 1551 1552 1552 1553 1553 1553 1554 1554 1554 1554 1554 1554 1555 1555 1555 1554 1554 1553 1552 1552 1553 1553 1553 1552 1552 1552 1552 1552 1551 1551 1551 1550 1550 1549 1549 1548
1475 1477 1479 1481 1484 1486 1488 1490 1493 1495 1497 1500 1502 1505 1507 1509 1511 1512 1514 1516 1517 1518 1519 1520 1521 1523 1523 1524 1526 1528 1529 1531 1533 1536 1539 1542 1543 1544 1544 1545 1545 1545 1546 1546 1547 1547 1547 1548 1549 1549 1550 1551 1551 1551 1551 1552 1552 1552 1552 1552 1552 1552 1553 1553 1552 1552 1551 1550 1550 1550 1550 1550 1549 1549 1549 1549 1548 1548 1547 1547 1547 1546 1546 1546 1546
1471 1473 1476 1478 1480 1482 1484 1486 1488 1490 1493 1496 1498 1501 1503 1505 1507 1508 1510 1511 1513 1514 1515 1516 1517 1518 1520 1521 1523 1525 1527 1529 1531 1536 1539 1540 1541 1542 1542 1542 1543 1543 1544 1544 1545 1545 1546 1546 1547 1548 1549 1549 1549 1550 1550 1550 1550 1550 1550 1550 1550 1550 1550 1550 1550 1550 1549 1548 1548 1547 1547 1547 1547 1546 1547 1546 1545 1545 1544 1544 1543 1543 1543 1543 1543
1467 1470 1472 1474 1476 1478 1479 1482 1484 1487 1489 1492 1494 1497 1499 1501 1503 1504 1506 1508 1509 1510 1511 1512 1513 1515 1517 1518 1520 1522 1524 1526 1530 1535 1537 1537 1538 1539 1538 1539 1540 1541 1542 1542 1543 1544 1544 1545 1546 1546 1547 1548 1548 1548 1549 1549 1549 1549 1549 1549 1548 1548 1548 1548 1548 1548 1547 1546 1546 1545 1544 1544 1544 1544 1544 1544 1543 1542 1542 1541 1540 1540 1540 1539 1539
1462 1465 1467 1469 1471 1472 1475 1478 1480 1483 1486 1488 1491 1493 1495 1497 1498 1500 1503 1504 1505 1506 1507 1508 1510 1512 1514 1516 1517 1519 1521 1523 1526 1529 1532 1532 1533 1534 1534 1535 1536 1538 1539 1540 1542 1543 1543 1544 1544 1545 1545 1546 1547 1547 1547 1547 1547 1547 1547 1547 1547 1547 1546 1546 1545 1545 1545 1544 1544 1543 1542 1542 1541 1541 1541 1541 1540 1540 1540 1539 1537 1537 1536 1536 1535
1458 1461 1463 1464 1465 1468 1471 1474 1477 1480 1482 1485 1487 1489 1491 1493 1495 1497 1499 1500 1502 1503 1504 1506 1507 1509 1510 1512 1514 1516 1518 1519 1521 1523 1525 1526 1527 1529 1530 1531 1532 1534 1536 1538 1540 1541 1542 1542 1542 1543 1544 1545 1545 1546 1546 1546 1546 1546 1546 1546 1546 1545 1544 1544 1543 1543 1543 1542 1541 1541 1540 1539 1538 1538 1538 1538 1538 1538 1537 1536 1534 1534 1534 1533 1532
1453 1456 1458 1459 1461 1464 1467 1470 1473 1476 1478 1480 1482 1484 1487 1489 1491 1493 1495 1497 1499 1500 1502 1503 1504 1505 1507 1509 1510 1512 1514 1515 1516 1518 1520 1522 1523 1525 1526 1527 1529 1530 1533 1535 1538 1539 1539 1540 1540 1542 1543 1544 1544 1544 1544 1545 1545 1544 1545 1545 1544 1544 1543 1542 1541 1541 1540 1539 1538 1538 1537 1536 1535 1535 1535 1535 1535 1535 1534 1533 1532 1531 1530 1529 1529
1448 1451 1452 1455 1458 1461 1463 1466 1469 1471 1473 1475 1478 1480 1483 1486 1488 1490 1492 1494 1496 1498 1499 1500 1500 1502 1504 1505 1507 1509 1511 1512 1512 1514 1517 1519 1521 1522 1523 1524 1525 1527 1529 1531 1534 1535 1537 1538 1538 1539 1540 1541 1542 1543 1543 1543 1543 1543 1543 1543 1543 1543 1542 1541 1540 1539 1538 1537 1536 1536 1534 1533 1532 1532 1532 1532 1531 1531 1530 1530 1529 1528 1527 1526 1525
1442 1445 1448 1451 1455 1457 1459 1461 1464 1466 1469 1471 1474 1477 1480 1483 1485 1487 1489 1491 1493 1495 1496 1497 1498 1500 1501 1503 1505 1506 1508 1510 1510 1511 1514 1517 1518 1518 1519 1521 1523 1525 1526 1528 1530 1533 1534 1536 1536 1536 1537 1538 1540 1541 1541 1541 1542 1542 1542 1542 1542 1541 1540 1539 1538 1537 1536 1535 1534 1533 1532 1530 1530 1529 1529 1528 1527 1527 1527 1527 1526 1525 1524 1524 1522
1437 1440 1443 1447 1450 1452 1455 1457 1460 1462 1465 1468 1471 1474 1477 1480 1482 1484 1486 1488 1490 1491 1492 1494 1495 1497 1498 1499 1501 1503 1506 1507 1507 1509 1512 1514 1515 1516 1518 1520 1521 1522 1524 1526 1528 1530 1531 1533 1533 1534 1535 1536 1537 1537 1537 1537 1538 1539 1539 1540 1540 1540 1538 1537 1537 1536 1535 1533 1532 1530 1529 1528 1527 1526 1526 1525 1524 1524 1523 1523 1523 1522 1521 1520 1519
1432 1434 1438 1441 1444 1447 1450 1453 1456 1459 1462 1465 1469 1471 1474 1476 1479 1481 1483 1485 1487 1488 1489 1491 1492 1493 1494 1496 1498 1501 1503 1503 1504 1506 1508 1510 1514 1518 1520 1521 1521 1522 1523 1524 1526 1527 1528 1530 1530 1531 1532 1533 1533 1534 1534 1535 1535 1536 1536 1536 1536 1536 1536 1535 1534 1533 1532 1530 1528 1527 1526 1525 1524 1523 1522 1522 1521 1520 1519 1518 1518 1518 1517 1517 1516
1427 1429 1432 1436 1439 1443 1446 1449 1452 1456 1459 1462 1465 1468 1471 1473 1476 1479 1481 1482 1484 1485 1487 1488 1489 1490 1492 1494 1496 1499 1500 1500 1501 1503 1506 1511 1518 1522 1522 1522 1522 1521 1521 1522 1524 1525 1526 1527 1528 1528 1529 1530 1531 1531 1532 1533 1533 1533 1534 1533 1533 1533 1532 1531 1531 1530 1529 1527 1525 1524 1523 1522 1521 1520 1519 1518 1518 1517 1516 1515 1515 1514 1514 1513 1512
1423 1425 1428 1431 1435 1438 1442 1445 1449 1452 1456 1459 1461 1464 1467 1470 1474 1476 1478 1480 1482 1484 1485 1486 1487 1489 1490 1492 1495 1496 1497 1498 1499 1503 1507 1512 1516 1518 1517 1518 1519 1519 1519 1520 1522 1523 1523 1524 1525 1526 1526 1527 1529 1529 1529 1529 1529 1530 1531 1530 1529 1529 1528 1528 1527 1526 1525 1524 1522 1521 1520 1519 1518 1517 1517 1516 1514 1514 1512 1511 1511 1511 1510 1510 1509
1419 1421 1424 1427 1431 1434 1437 1442 1446 1449 1452 1455 1458 1461 1464 1468 1471 1474 1476 1478 1479 1481 1482 1483 1485 1487 1488 1490 1492 1493 1494 1495 1498 1502 1504 1505 1506 1508 1511 1512 1514 1515 1517 1519 1520 1521 1522 1522 1523 1525 1525 1525 1526 1526 1527 1526 1525 1525 1525 1526 1526 1525 1525 1524 1524 1523 1522 1520 1519 1518 1517 1516 1515 1514 1514 1513 1512 1511 1510 1508 1509 1509 1508 1506 1505
1415 1417 1420 1423 1427 1430 1433 1438 1442 1445 1449 1452 1455 1459 1462 1466 1468 1471 1472 1474 1475 1476 1478 1480 1482 1483 1485 1487 1488 1489 1491 1493 1495 1497 1498 1498 1499 1503 1506 1507 1509 1512 1514 1516 1517 1518 1518 1520 1521 1523 1523 1523 1523 1523 1523 1523 1522 1521 1522 1522 1522 1521 1521 1521 1520 1519 1518 1517 1516 1516 1514 1514 1513 1512 1511 1510 1509 1508 1507 1505 1506 1506 1505 1504 1502
1410 1413 1416 1419 1423 1426 1430 1434 1439 1442 1446 1450 1453 1457 1460 1463 1465 1467 1469 1469 1471 1472 1474 1476 1478 1479 1481 1483 1484 1486 1488 1490 1492 1493 1494 1496 1498 1500 1502 1503 1506 1508 1510 1511 1513 1513 1515 1516 1517 1519 1520 1521 1521 1521 1520 1519 1518 1518 1519 1519 1518 1518 1518 1518 1517 1515 1514 1514 1513 1513 1512 1511 1510 1509 1508 1507 1507 1506 1504 1503 1503 1503 1502 1501 1500
1407 1410 1413 1416 1420 1423 1427 1432 1436 1440 1444 1448 1452 1455 1457 1459 1461 1463 1465 1467 1469 1471 1473 1474 1475 1477 1479 1480 1481 1483 1485 1487 1489 1491 1493 1495 1497 1498 1499 1500 1502 1504 1506 1508 1510 1511 1513 1514 1514 1515 1517 1518 1518 1518 1517 1516 1515 1516 1516 1516 1515 1515 1515 1515 1514 1512 1511 1510 1510 1509 1509 1508 1507 1506 1505 1504 1503 1503 1502 1502 1501 1500 1499 1499 1498
1404 1408 1411 1413 1417 1420 1424 1429 1434 1438 1443 1446 1449 1452 1453 1455 1458 1460 1463 1465 1467 1469 1471 1472 1474 1475 1476 1477 1479 1481 1482 1484 1487 1490 1492 1493 1494 1495 1496 1497 1499 1502 1504 1506 1507 1509 1510 1510 1511 1512 1514 1515 1515 1514 1514 1513 1513 1513 1513 1512 1512 1512 1512 1511 1511 1509 1509 1508 1507 1506 1505 1504 1504 1503 1502 1501 1500 1500 1500 1499 1499 1498 1497 1496 1495
1402 1405 1408 1411 1414 1418 1423 1428 1433 1437 1441 1444 1446 1449 1451 1453 1454 1457 1459 1462 1464 1466 1467 1469 1471 1472 1474 1475 1477 1478 1480 1483 1486 1488 1490 1491 1492 1493 1494 1496 1498 1501 1502 1504 1505 1507 1507 1507 1508 1510 1511 1511 1512 1511 1511 1511 1511 1510 1510 1510 1510 1509 1509 1508 1507 1506 1506 1505 1504 1503 1502 1502 1501 1500 1500 1499 1498 1498 1497 1497 1496 1495 1495 1494 1493
1399 1401 1405 1409 1413 1418 1424 1428 1432 1435 1438 1441 1444 1446 1448 1450 1452 1454 1456 1459 1461 1463 1464 1466 1468 1469 1471 1473 1474 1476 1479 1482 1485 1486 1488 1489 1490 1491 1493 1495 1498 1500 1501 1502 1503 1504 1505 1505 1506 1508 1508 1508 1508 1508 1509 1508 1508 1508 1508 1507 1507 1506 1506 1505 1504 1503 1503 1502 1501 1500 1500 1499 1498 1498 1497 1497 1496 1495 1495 1494 1494 1494 1493 1492 1491
1396 1399 1403 1408 1413 1419 1423 1427 1430 1433 1436 1439 1442 1443 1446 1448 1449 1451 1453 1456 1458 1460 1462 1464 1465 1466 1468 1470 1472 1475 1478 1480 1482 1484 1486 1487 1488 1490 1492 1495 1497 1499 1500 1501 1502 1502 1503 1504 1505 1505 1505 1505 1505 1506 1506 1506 1506 1505 1505 1505 1504 1503 1503 1502 1501 1500 1500 1499 1498 1498 1498 1497 1497 1496 1495 1495 1494 1493 1493 1492 1492 1491 1490 1489 1488
1394 1397 1402 1407 1413 1418 1422 1425 1429 1432 1435 1437 1439 1441 1444 1446 1448 1450 1452 1454 1456 1458 1460 1462 1463 1464 1466 1468 1470 1473 1476 1478 1480 1482 1484 1486 1487 1489 1492 1493 1495 1497 1498 1499 1500 1501 1501 1502 1502 1502 1502 1502 1503 1503 1503 1503 1503 1503 1502 1502 1501 1500 1500 1499 1499 1498 1497 1497 1497 1497 1496 1496 1495 1494 1494 1493 1492 1492 1491 1490 1490 1489 1487 1486 1484
1393 1397 1402 1406 1411 1416 1420 1424 1427 1431 1434 1436 1438 1441 1443 1445 1447 1449 1451 1453 1455 1457 1459 1460 1461 1462 1464 1465 1468 1471 1473 1476 1478 1480 1482 1484 1486 1488 1490 1491 1493 1495 1496 1497 1498 1498 1499 1499 1499 1499 1499 1500 1500 1501 1501 1501 1501 1500 1499 1498 1498 1498 1497 1497 1496 1496 1496 1496 1496 1495 1495 1494 1494 1493 1492 1491 1491 1490 1489 1488 1487 1486 1484 1482 1481
1392 1397 1401 1404 1409 1414 1419 1422 1425 1429 1433 1435 1438 1440 1443 1445 1447 1449 1451 1453 1454 1456 1458 1458 1459 1460 1461 1463 1466 1468 1470 1473 1476 1478 1481 1482 1484 1486 1488 1489 1491 1492 1493 1494 1495 1496 1497 1497 1497 1497 1497 1497 1498 1498 1498 1498 1498 1497 1496 1496 1495 1495 1495 1495 1495 1495 1495 1495 1494 1494 1493 1493 1492 1491 1490 1489 1489 1488 1487 1486 1484 1483 1481 1480 1478
1391 1396 1400 1404 1409 1414 1417 1420 1423 1427 1430 1433 1436 1439 1441 1443 1445 1447 1449 1451 1453 1455 1456 1456 1457 1458 1460 1462 1464 1466 1468 1471 1473 1476 1478 1480 1482 1484 1486 1487 1489 1491 1492 1493 1494 1494 1494 1494 1495 1495 1495 1495 1496 1496 1496 1495 1495 1495 1495 1494 1494 1494 1494 1494 1494 1493 1493 1493 1493 1492 1492 1491 1490 1489 1489 1488 1487 1486 1485 1483 1482 1480 1479 1478 1476
1392 1397 1401 1405 1410 1413 1416 1420 1423 1426 1428 1431 1435 1438 1440 1443 1444 1445 1447 1449 1451 1453 1454 1455 1456 1458 1459 1461 1462 1464 1466 1469 1472 1475 1477 1479 1481 1482 1484 1486 1488 1489 1491 1492 1492 1492 1492 1492 1492 1493 1493 1494 1494 1493 1493 1493 1493 1493 1493 1492 1492 1492 1492 1492 1492 1492 1492 1492 1492 1491 1490 1489 1488 1488 1487 1486 1485 1484 1482 1481 1480 1478 1477 1476 1474
1394 1400 1404 1407 1411 1413 1416 1420 1423 1425 1428 1431 1434 1437 1440 1442 1444 1445 1447 1448 1450 1451 1453 1454 1455 1457 1458 1460 1461 1463 1466 1468 1471 1473 1475 1477 1480 1481 1483 1485 1486 1487 1489 1490 1490 1490 1490 1490 1491 1491 1491 1491 1491 1491 1491 1490 1490 1491 1490 1490 1491 1491 1491 1491 1491 1491 1491 1490 1490 1489 1488 1487 1487 1486 1485 1484 1482 1481 1480 1479 1478 1476 1475 1474 1472
1398 1403 1406 1409 1412 1414 1417 1420 1422 1425 1429 1431 1434 1436 1438 1441 1443 1445 1446 1447 1449 1450 1451 1452 1454 1456 1458 1459 1460 1463 1465 1468 1470 1472 1474 1476 1478 1480 1482 1483 1484 1485 1486 1487 1487 1488 1488 1488 1489 1489 1489 1489 1488 1488 1488 1488 1488 1488 1488 1489 1489 1489 1489 1490 1490 1489 1489 1489 1488 1487 1487 1486 1485 1484 1483 1481 1480 1479 1478 1477 1476 1475 1474 1472 1471
1401 1404 1407 1410 1413 1415 1418 1420 1422 1425 1428 1430 1433 1435 1438 1440 1442 1444 1445 1447 1448 1450 1451 1451 1452 1454 1456 1458 1460 1462 1464 1466 1469 1471 1473 1475 1477 1478 1480 1480 1481 1483 1484 1485 1486 1486 1486 1487 1487 1487 1487 1487 1487 1486 1486 1485 1486 1486 1487 1487 1488 1488 1488 1488 1488 1488 1488 1487 1486 1485 1484 1484 1483 1481 1480 1479 1478 1477 1476 1475 1474 1473 1472 1471 1470
1403 1405 1408 1411 1414 1416 1418 1419 1422 1424 1426 1429 1432 1434 1437 1439 1441 1442 1444 1445 1447 1449 1450 1450 1451 1453 1455 1457 1459 1461 1463 1465 1468 1469 1471 1473 1475 1476 1477 1478 1480 1481 1483 1483 1484 1485 1485 1485 1486 1486 1486 1486 1486 1485 1484 1484 1485 1485 1486 1486 1486 1486 1486 1486 1486 1486 1485 1485 1484 1483 1482 1481 1480 1479 1478 1477 1476 1475 1474 1473 1473 1472 1470 1469 1468
1405 1407 1410 1413 1414 1416 1418 1420 1422 1424 1426 1428 1431 1433 1436 1438 1440 1442 1443 1445 1447 1448 1449 1449 1451 1453 1455 1457 1458 1460 1462 1465 1467 1469 1470 1472 1473 1475 1476 1477 1479 1480 1481 1482 1482 1483 1483 1484 1484 1484 1484 1484 1484 1484 1483 1483 1484 1484 1485 1485 1485 1485 1485 1484 1484 1484 1483 1483 1482 1481 1480 1479 1478 1477 1476 1475 1474 1474 1473 1472 1471 1470 1469 1467 1466
1407 1409 1412 1414 1415 1416 1418 1421 1423 1424 1426 1428 1429 1432 1434 1437 1439 1441 1443 1445 1447 1448 1447 1449 1451 1453 1455 1457 1458 1459 1461 1464 1466 1468 1469 1470 1472 1473 1475 1476 1477 1478 1479 1480 1480 1481 1482 1482 1482 1482 1482 1482 1482 1482 1482 1482 1483 1483 1484 1484 1484 1483 1483 1482 1482 1482 1481 1480 1480 1479 1478 1477 1476 1475 1474 1474 1473 1473 1472 1471 1470 1469 1468 1466 1464
1409 1411 1413 1415 1416 1417 1419 1421 1423 1425 1426 1427 1428 1431 1433 1435 1438 1440 1442 1445 1446 1447 1447 1448 1450 1452 1454 1456 1457 1459 1460 1462 1464 1466 1468 1469 1470 1472 1473 1474 1476 1477 1477 1478 1479 1480 1480 1480 1480 1480 1480 1480 1481 1481 1481 1481 1482 1482 1482 1482 1482 1481 1481 1480 1480 1479 1478 1478 1478 1477 1476 1475 1474 1474 1473 1472 1472 1471 1470 1470 1469 1468 1466 1465 1463
1411 1413 1415 1417 1418 1419 1420 1421 1422 1424 1425 1425 1427 1430 1432 1435 1437 1439 1442 1444 1445 1446 1446 1448 1449 1451 1453 1455 1456 1458 1460 1461 1463 1465 1466 1468 1469 1470 1472 1473 1474 1475 1476 1476 1477 1478 1478 1479 1479 1479 1479 1479 1479 1479 1479 1480 1480 1480 1480 1480 1480 1479 1479 1478 1478 1477 1477 1477 1476 1475 1475 1474 1473 1473 1472 1471 1471 1470 1469 1469 1468 1466 1465 1464 1462
1413 1414 1416 1418 1420 1422 1423 1423 1423 1423 1423 1424 1426 1429 1431 1434 1437 1440 1442 1443 1444 1445 1446 1447 1449 1451 1452 1454 1456 1457 1459 1460 1462 1463 1465 1466 1468 1469 1470 1471 1472 1473 1474 1474 1475 1476 1476 1477 1477 1477 1478 1478 1478 1478 1478 1478 1478 1478 1478 1478 1478 1477 1477 1477 1476 1476 1475 1475 1475 1474 1473 1473 1472 1472 1471 1470 1470 1469 1468 1467 1466 1465 1463 1462 1460
1414 1416 1417 1419 1420 1422 1425 1425 1423 1422 1422 1423 1425 1427 1430 1434 1438 1440 1441 1442 1443 1444 1445 1447 1448 1450 1452 1453 1455 1456 1457 1459 1460 1462 1463 1465 1466 1467 1469 1470 1470 1471 1472 1472 1473 1474 1475 1475 1476 1476 1476 1476 1476 1476 1476 1476 1477 1477 1477 1477 1476 1476 1475 1475 1475 1474 1474 1474 1473 1472 1472 1472 1471 1471 1470 1469 1469 1468 1467 1466 1465 1463 1462 1460 1459
1415 1416 1418 1419 1421 1423 1424 1424 1424 1423 1423 1424 1425 1427 1430 1434 1437 1439 1440 1441 1442 1443 1445 1446 1447 1449 1451 1453 1454 1455 1456 1457 1459 1461 1462 1463 1464 1466 1467 1468 1469 1470 1470 1471 1472 1472 1473 1473 1474 1475 1475 1475 1474 1474 1474 1475 1475 1475 1475 1474 1474 1474 1474 1473 1473 1473 1472 1472 1472 1471 1471 1470 1470 1469 1469 1468 1468 1467 1466 1464 1463 1462 1461 1459 1457
1415 1416 1419 1421 1423 1424 1424 1425 1425 1425 1426 1426 1427 1429 1432 1434 1436 1438 1439 1440 1442 1443 1444 1445 1447 1449 1451 1452 1453 1455 1456 1457 1458 1459 1461 1462 1463 1464 1465 1467 1468 1469 1469 1470 1471 1471 1471 1472 1472 1473 1473 1473 1473 1473 1473 1473 1473 1473 1473 1472 1472 1472 1472 1472 1472 1471 1471 1471 1470 1469 1469 1469 1469 1468 1468 1467 1466 1465 1464 1463 1462 1461 1459 1458 1456
1414 1417 1419 1422 1424 1425 1425 1426 1427 1428 1428 1428 1429 1431 1433 1434 1435 1437 1438 1440 1442 1443 1444 1445 1446 1449 1450 1451 1453 1454 1455 1456 1457 1458 1459 1461 1462 1463 1464 1466 1467 1467 1468 1469 1469 1470 1470 1471 1471 1471 1471 1471 1471 1471 1471 1471 1471 1471 1471 1470 1470 1470 1470 1470 1470 1470 1470 1469 1469 1468 1468 1468 1467 1467 1466 1466 1465 1464 1463 1461 1460 1459 1458 1456 1455
1415 1418 1420 1423 1425 1426 1427 1427 1428 1429 1429 1429 1430 1431 1432 1433 1435 1436 1438 1439 1441 1442 1443 1445 1446 1448 1449 1451 1452 1453 1454 1455 1456 1457 1458 1460 1461 1462 1463 1465 1466 1466 1467 1467 1468 1468 1469 1469 1469 1469 1469 1470 1470 1470 1470 1470 1470 1469 1469 1469 1469 1468 1468 1468 1469 1468 1468 1467 1467 1467 1467 1467 1466 1466 1465 1464 1463 1462 1461 1460 1459 1458 1457 1455 1453
1417 1418 1421 1423 1425 1427 1427 1428 1428 1429 1429 1429 1430 1431 1432 1433 1434 1436 1437 1439 1440 1442 1443 1445 1446 1448 1449 1450 1451 1452 1453 1454 1455 1456 1457 1458 1460 1461 1462 1463 1464 1465 1466 1466 1466 1466 1467 1467 1468 1468 1468 1468 1468 1469 1469 1469 1469 1468 1468 1467 1467 1467 1466 1466 1466 1466 1466 1466 1466 1466 1466 1466 1465 1465 1464 1463 1462 1461 1459 1458 1458 1457 1455 1454 1452
1418 1420 1422 1423 1424 1426 1426 1426 1426 1427 1428 1429 1429 1430 1431 1432 1434 1435 1436 1438 1440 1442 1443 1445 1446 1448 1448 1449 1450 1451 1452 1453 1454 1455 1456 1457 1458 1460 1461 1462 1463 1464 1464 1464 1464 1465 1466 1466 1466 1466 1466 1467 1467 1467 1467 1467 1467 1466 1466 1465 1465 1464 1464 1464 1464 1464 1464 1464 1464 1465 1465 1464 1464 1463 1462 1461 1460 1459 1458 1457 1457 1455 1454 1453 1452
1420 1420 1421 1421 1421 1422 1423 1424 1424 1425 1426 1428 1429 1430 1431 1432 1434 1435 1436 1437 1439 1441 1443 1444 1446 1447 1448 1449 1450 1450 1451 1452 1453 1454 1455 1456 1457 1459 1460 1461 1461 1462 1461 1462 1463 1463 1464 1465 1465 1465 1465 1465 1465 1465 1465 1465 1464 1463 1463 1463 1462 1462 1462 1462 1462 1462 1463 1463 1463 1463 1463 1463 1462 1461 1461 1460 1459 1458 1457 1456 1455 1454 1453 1452 1451
1419 1419 1420 1420 1420 1419 1420 1421 1422 1423 1425 1427 1428 1429 1430 1432 1433 1434 1435 1436 1438 1440 1442 1443 1445 1446 1447 1448 1449 1449 1450 1450 1451 1452 1454 1455 1456 1458 1459 1459 1460 1460 1460 1461 1462 1462 1463 1463 1464 1464 1464 1464 1464 1464 1463 1462 1461 1461 1461 1460 1460 1460 1460 1460 1461 1461 1461 1462 1462 1461 1461 1461 1460 1460 1459 1458 1457 1457 1456 1455 1454 1453 1452 1452 1451
1418 1418 1419 1420 1420 1419 1419 1421 1422 1423 1424 1426 1427 1428 1430 1431 1432 1434 1435 1435 1436 1438 1440 1443 1444 1445 1446 1447 1447 1448 1449 1450 1450 1452 1453 1454 1456 1456 1457 1457 1458 1458 1459 1459 1460 1461 1461 1461 1461 1462 1462 1462 1462 1462 1462 1461 1460 1459 1459 1459 1459 1459 1459 1459 1459 1460 1460 1460 1460 1460 1459 1459 1459 1458 1457 1457 1456 1455 1454 1453 1453 1452 1452 1451 1450
1418 1418 1419 1419 1420 1420 1420 1421 1422 1423 1424 1426 1427 1428 1429 1430 1431 1433 1434 1435 1436 1437 1439 1441 1443 1444 1445 1446 1446 1447 1448 1449 1450 1451 1453 1454 1455 1455 1455 1455 1456 1456 1457 1457 1458 1458 1458 1459 1459 1459 1459 1460 1460 1460 1460 1459 1459 1458 1458 1457 1457 1458 1458 1458 1458 1458 1458 1458 1458 1458 1458 1457 1457 1457 1456 1455 1455 1454 1453 1452 1452 1451 1451 1450 1449
1418 1418 1419 1420 1420 1421 1421 1421 1422 1423 1425 1426 1426 1427 1428 1429 1430 1432 1434 1435 1436 1438 1439 1440 1441 1442 1444 1444 1445 1446 1447 1448 1449 1451 1452 1453 1453 1453 1453 1453 1454 1455 1455 1456 1456 1456 1456 1456 1456 1456 1457 1457 1457 1458 1458 1458 1457 1457 1456 1456 1456 1456 1457 1457 1456 1456 1456 1456 1456 1456 1456 1456 1455 1455 1454 1454 1453 1452 1452 1451 1451 1451 1450 1449 1448
1418 1418 1419 1419 1420 1420 1421 1421 1421 1423 1424 1425 1425 1427 1428 1429 1430 1431 1433 1435 1436 1438 1439 1439 1440 1441 1442 1443 1444 1445 1446 1447 1448 1449 1450 1451 1452 1452 1452 1452 1453 1453 1454 1454 1454 1454 1454 1454 1453 1454 1454 1454 1455 1456 1456 1456 1456 1456 1455 1455 1455 1455 1455 1455 1455 1455 1454 1454 1454 1454 1454 1454 1454 1453 1453 1452 1452 1451 1451 1451 1450 1450 1449 1448 1447